sat.trackr.live / text

‹ back to catalog

STARLINK-5142

NORAD 53984 · 2022-125W

PAYLOAD ACTIVE UNKNOWN

§ Identity

Operator
Country
US
Launch date
2022-10-05
Launch site
AFWTR
Launch vehicle
Mass (kg)
RCS (m²)

Purposes: comms

External: N2YO · Heavens-Above · Gunter

§ Orbital elements

Epoch: 2026-09-20T14:09:16.537536Z

Period
95.44 min
Inclination
53.1598°
Eccentricity
0.0001273
Mean motion
15.08832769 rev/d
Perigee alt
538.9 km
Apogee alt
540.6 km
Semi-major
6,917.9 km
B*
8.7935e-6
RAAN
58.6714°
Arg perigee
85.5498°
Mean anomaly
274.5639°
Rev number
21,888

§ Raw data

STARLINK-51421 53984U 22125W   26263.58977474 -.00000148  00000+0  87935-5 0  99912 53984  53.1598  58.6714 0001273  85.5498 274.5639 15.08832769218887

JSON: /api/v1/satellites/53984 · /tle

For live sub-satellite position, see the globe view (requires WebGL).

§ Visibility from observer

Set your observer location to see the next 7 days of passes ≥ 10°. The values pass through the URL so the page stays shareable.

No JS? Fill the form by hand. The geolocation button needs JavaScript.